Galena, AK

3:49 AM AKDT on August 19, 2017 (GMT -0800)
Pitka

Weather History for PAGA - November, 2013

Change the Weather History Date:

Sunday, November 24, 2013

  Actual Average Record
Temperature  
Mean Temperature -6 °F -  
Max Temperature 8 °F 6 °F 35 °F (2002)
Min Temperature -20 °F -5 °F -44 °F (1974)
Degree Days  
Heating Degree Days 71    
Moisture  
Dew Point -10 °F    
Average Humidity 83    
Maximum Humidity 92    
Minimum Humidity 78    
Precipitation  
Precipitation 0.00 in - - ()
Sea Level Pressure  
Sea Level Pressure 30.06 in    
Wind  
Wind Speed 2 mph (WNW)    
Max Wind Speed 6 mph    
Max Gust Speed -    
Visibility 8 miles    
Events Snow    
Averages and records for this station are not official NWS values.
T = Trace of Precipitation, MM = Missing Value Source: NWS Daily Summary

Daily Weather History Graph

Daily Weather History Graph

Search for Another Location

Airport or City:

Trip Planner

Search our weather history database for the weather conditions in past years. The results will help you decide how hot, cold, wet, or windy it might be!

Date:

Astronomy

Nov. 24, 2013 Rise Set
Actual Time 10:33 AM AKST 3:54 PM AKST
Civil Twilight 9:24 AM AKST 5:03 PM AKST
Nautical Twilight 8:19 AM AKST 6:09 PM AKST
Astronomical Twilight 7:20 AM AKST 7:08 PM AKST
Moon No Moon Rise 2:05 PM AKST (11/24)
Length of Visible Light 7h 38m
Length of Day
5h 20m
Waning Gibbous, 59% of the Moon is Illuminated
Nov 24
Waning Gibbous
Nov 25
Last Quarter
Dec 2
New
Dec 9
First Quarter
Dec 17
Full

Hourly Weather History & Observations

Time (AKST) Temp. Windchill Dew Point Humidity Pressure Visibility Wind Dir Wind Speed Gust Speed Precip Events Conditions
12:06 AM 8.6 °F 2.0 °F 6.8 °F 92% 29.89 in 2.0 mi West 3.5 mph - N/A Snow Light Snow
12:11 AM 8.6 °F -1.3 °F 6.8 °F 92% 29.89 in 1.8 mi West 5.8 mph - N/A Snow Light Snow
12:29 AM 8.6 °F -1.3 °F 6.8 °F 92% 29.90 in 2.0 mi West 5.8 mph - N/A Snow Light Snow
12:57 AM 8.1 °F 1.4 °F 3.9 °F 83% 29.93 in 3.0 mi WNW 3.5 mph - N/A Snow Light Snow
1:03 AM 6.8 °F -0.1 °F 3.2 °F 85% 29.91 in 4.0 mi West 3.5 mph - N/A Snow Light Snow
1:58 AM 5.0 °F - 1.9 °F 87% 29.95 in 8.0 mi Calm Calm - N/A   Overcast
2:58 AM 3.0 °F - -0.0 °F 87% 29.98 in 9.0 mi Calm Calm - N/A Snow Light Snow
3:02 AM 3.2 °F - -0.4 °F 85% 29.95 in 9.0 mi Calm Calm - N/A Snow Light Snow
3:58 AM 1.9 °F - -0.9 °F 88% 29.99 in 10.0 mi Calm Calm - N/A Snow Light Snow
4:22 AM 1.4 °F - -2.2 °F 85% 29.97 in 10.0 mi Calm Calm - N/A   Scattered Clouds
4:31 AM 1.4 °F - -2.2 °F 85% 29.97 in 10.0 mi Calm Calm - N/A   Mostly Cloudy
4:58 AM -0.9 °F -8.9 °F -4.0 °F 87% 30.01 in 10.0 mi East 3.5 mph - N/A   Overcast
5:48 AM -4.0 °F - -7.6 °F 85% 30.00 in 10.0 mi Calm Calm - N/A   Scattered Clouds
5:58 AM -5.1 °F - -9.0 °F 83% 30.02 in 10.0 mi Calm Calm - N/A   Partly Cloudy
6:58 AM -7.1 °F - -11.0 °F 83% 30.04 in 10.0 mi Calm Calm - N/A   Clear
7:58 AM -6.0 °F -16.9 °F -9.0 °F 87% 30.06 in 10.0 mi ESE 4.6 mph - N/A   Clear
8:58 AM -9.9 °F - -13.0 °F 86% 30.06 in 10.0 mi Calm Calm - N/A   Clear
9:58 AM -11.0 °F - -15.0 °F 83% 30.09 in 10.0 mi Calm Calm - N/A   Clear
10:58 AM -14.1 °F - -18.0 °F 82% 30.11 in 10.0 mi Calm Calm - N/A   Clear
11:58 AM -11.0 °F - -15.0 °F 83% 30.12 in 10.0 mi Calm Calm - N/A   Clear
12:58 PM -6.0 °F - -9.9 °F 83% 30.13 in 9.0 mi Calm Calm - N/A   Clear
1:58 PM -9.0 °F - -13.0 °F 83% 30.14 in 10.0 mi Calm Calm - N/A   Clear
2:58 PM -9.9 °F - -15.0 °F 78% 30.13 in 10.0 mi Calm Calm - N/A   Clear
3:58 PM -13.0 °F - -18.0 °F 78% 30.15 in 10.0 mi Calm Calm - N/A   Clear
4:58 PM -15.0 °F - -20.0 °F 78% 30.15 in 10.0 mi Calm Calm - N/A   Clear
5:58 PM -16.1 °F -26.2 °F -20.9 °F 79% 30.16 in 5.0 mi NNW 3.5 mph - N/A   Haze
6:58 PM -18.0 °F - -23.1 °F 78% 30.17 in 10.0 mi Calm Calm - N/A   Clear
7:58 PM -18.9 °F - -24.0 °F 78% 30.17 in 10.0 mi Calm Calm - N/A   Clear
8:58 PM -18.0 °F -28.5 °F -23.1 °F 78% 30.18 in 10.0 mi WNW 3.5 mph - N/A   Clear
9:58 PM -18.0 °F - -23.1 °F 78% 30.18 in 9.0 mi Calm Calm - N/A   Clear
10:58 PM -20.0 °F -30.7 °F -25.1 °F 78% 30.19 in 8.0 mi South 3.5 mph - N/A   Clear
11:58 PM -18.0 °F -28.5 °F -23.1 °F 78% 30.18 in 10.0 mi NNW 3.5 mph - N/A   Clear